Time,TemperatureF,DewpointF,PressureIn,WindDirection,WindDirectionDegrees,WindSpeedMPH,WindSpeedGustMPH,Humidity,HourlyPrecipIn,Conditions,Clouds,dailyrainin,SoftwareType,DateUTC
2013-10-25 00:00:00,46.2,37.0,30.21,West,281,0.0,0.0,70,0.00,,,0.00,Wunderground v.1.15,2013-10-25 04:00:00,
2013-10-25 00:05:00,46.2,37.7,30.22,West,281,0.0,0.0,72,0.00,,,0.00,Wunderground v.1.15,2013-10-25 04:05:00,
2013-10-25 00:10:00,46.2,37.7,30.21,West,281,0.0,0.0,72,0.00,,,0.00,Wunderground v.1.15,2013-10-25 04:10:00,
2013-10-25 00:15:00,46.1,37.2,30.22,West,281,0.0,0.0,71,0.00,,,0.00,Wunderground v.1.15,2013-10-25 04:15:00,
2013-10-25 00:20:00,46.1,37.2,30.22,West,281,0.0,0.0,71,0.00,,,0.00,Wunderground v.1.15,2013-10-25 04:20:00,
2013-10-25 00:25:00,46.1,37.2,30.22,West,281,0.0,0.0,71,0.00,,,0.00,Wunderground v.1.15,2013-10-25 04:25:00,
2013-10-25 00:30:00,46.1,37.2,30.22,West,281,0.0,0.0,71,0.00,,,0.00,Wunderground v.1.15,2013-10-25 04:30:00,
2013-10-25 00:35:00,46.1,37.2,30.22,West,281,0.0,0.0,71,0.00,,,0.00,Wunderground v.1.15,2013-10-25 04:35:00,
2013-10-25 00:40:00,46.0,37.5,30.22,West,281,0.0,0.0,72,0.00,,,0.00,Wunderground v.1.15,2013-10-25 04:40:00,
2013-10-25 00:45:00,46.0,37.5,30.22,West,281,0.0,0.0,72,0.00,,,0.00,Wunderground v.1.15,2013-10-25 04:45:00,
2013-10-25 00:50:00,46.0,37.5,30.22,West,281,0.0,0.0,72,0.00,,,0.00,Wunderground v.1.15,2013-10-25 04:50:00,
2013-10-25 00:55:00,46.0,37.1,30.22,West,281,0.0,0.0,71,0.00,,,0.00,Wunderground v.1.15,2013-10-25 04:55:00,
2013-10-25 01:00:00,46.0,37.8,30.21,West,281,0.0,0.0,73,0.00,,,0.00,Wunderground v.1.15,2013-10-25 05:00:00,
2013-10-25 01:10:00,45.9,37.0,30.22,West,281,0.0,0.0,71,0.00,,,0.00,Wunderground v.1.15,2013-10-25 05:10:00,
2013-10-25 01:15:00,45.9,37.4,30.22,West,281,0.0,0.0,72,0.00,,,0.00,Wunderground v.1.15,2013-10-25 05:15:00,
2013-10-25 01:20:00,45.8,36.9,30.22,West,281,0.0,0.0,71,0.00,,,0.00,Wunderground v.1.15,2013-10-25 05:20:00,
2013-10-25 01:30:00,45.8,38.0,30.23,West,281,0.0,0.0,74,0.00,,,0.00,Wunderground v.1.15,2013-10-25 05:30:00,
2013-10-25 01:35:00,45.7,37.5,30.23,West,281,0.0,0.0,73,0.00,,,0.00,Wunderground v.1.15,2013-10-25 05:35:00,
2013-10-25 01:40:00,45.6,37.4,30.23,West,281,0.0,0.0,73,0.00,,,0.00,Wunderground v.1.15,2013-10-25 05:40:00,
2013-10-25 01:45:00,45.6,36.7,30.23,West,281,0.0,0.0,71,0.00,,,0.00,Wunderground v.1.15,2013-10-25 05:45:00,
2013-10-25 01:50:00,45.5,37.0,30.23,West,281,0.0,0.0,72,0.00,,,0.00,Wunderground v.1.15,2013-10-25 05:50:00,
2013-10-25 01:55:00,45.6,37.1,30.23,West,281,0.0,0.0,72,0.00,,,0.00,Wunderground v.1.15,2013-10-25 05:55:00,
2013-10-25 02:00:00,45.5,37.3,30.23,West,281,0.0,0.0,73,0.00,,,0.00,Wunderground v.1.15,2013-10-25 06:00:00,
2013-10-25 02:10:00,45.3,36.8,30.23,West,281,0.0,0.0,72,0.00,,,0.00,Wunderground v.1.15,2013-10-25 06:10:00,
2013-10-25 02:15:00,45.2,36.7,30.23,West,281,0.0,0.0,72,0.00,,,0.00,Wunderground v.1.15,2013-10-25 06:15:00,
2013-10-25 02:20:00,45.2,36.7,30.24,WNW,282,0.0,0.0,72,0.00,,,0.00,Wunderground v.1.15,2013-10-25 06:20:00,
2013-10-25 02:25:00,45.1,37.0,30.23,WNW,282,0.0,0.0,73,0.00,,,0.00,Wunderground v.1.15,2013-10-25 06:25:00,
2013-10-25 02:30:00,45.1,36.6,30.23,WNW,282,0.0,0.0,72,0.00,,,0.00,Wunderground v.1.15,2013-10-25 06:30:00,
2013-10-25 02:35:00,45.0,36.9,30.24,WNW,282,0.0,0.0,73,0.00,,,0.00,Wunderground v.1.15,2013-10-25 06:35:00,
2013-10-25 02:45:00,45.0,36.5,30.23,WNW,282,0.0,0.0,72,0.00,,,0.00,Wunderground v.1.15,2013-10-25 06:45:00,
2013-10-25 02:50:00,44.9,36.4,30.23,WNW,282,0.0,0.0,72,0.00,,,0.00,Wunderground v.1.15,2013-10-25 06:50:00,
2013-10-25 02:55:00,44.9,36.8,30.24,WNW,282,0.0,0.0,73,0.00,,,0.00,Wunderground v.1.15,2013-10-25 06:55:00,
2013-10-25 03:00:00,44.8,36.7,30.24,WNW,282,0.0,0.0,73,0.00,,,0.00,Wunderground v.1.15,2013-10-25 07:00:00,
2013-10-25 03:10:00,44.7,36.6,30.23,WNW,282,0.0,0.0,73,0.00,,,0.00,Wunderground v.1.15,2013-10-25 07:10:00,
2013-10-25 03:20:00,44.7,36.6,30.24,WNW,282,0.0,0.0,73,0.00,,,0.00,Wunderground v.1.15,2013-10-25 07:20:00,
2013-10-25 03:30:00,44.7,36.6,30.24,WNW,282,0.0,0.0,73,0.00,,,0.00,Wunderground v.1.15,2013-10-25 07:30:00,
2013-10-25 03:35:00,44.7,36.6,30.24,WNW,282,0.0,0.0,73,0.00,,,0.00,Wunderground v.1.15,2013-10-25 07:35:00,
2013-10-25 03:40:00,44.6,36.5,30.24,WNW,282,0.0,0.0,73,0.00,,,0.00,Wunderground v.1.15,2013-10-25 07:40:00,
2013-10-25 03:45:00,44.6,36.5,30.24,WNW,282,0.0,2.0,73,0.00,,,0.00,Wunderground v.1.15,2013-10-25 07:45:00,
2013-10-25 03:50:00,44.6,37.5,30.25,WNW,282,0.0,0.0,76,0.00,,,0.00,Wunderground v.1.15,2013-10-25 07:50:00,
2013-10-25 03:55:00,44.5,36.4,30.25,WNW,282,0.0,0.0,73,0.00,,,0.00,Wunderground v.1.15,2013-10-25 07:55:00,
2013-10-25 04:05:00,44.4,36.3,30.25,WNW,282,0.0,0.0,73,0.00,,,0.00,Wunderground v.1.15,2013-10-25 08:05:00,
2013-10-25 04:10:00,44.4,36.3,30.25,WNW,282,0.0,0.0,73,0.00,,,0.00,Wunderground v.1.15,2013-10-25 08:10:00,
2013-10-25 04:15:00,44.4,35.9,30.25,WNW,283,0.0,0.0,72,0.00,,,0.00,Wunderground v.1.15,2013-10-25 08:15:00,
2013-10-25 04:20:00,44.4,36.3,30.26,WNW,283,0.0,0.0,73,0.00,,,0.00,Wunderground v.1.15,2013-10-25 08:20:00,
2013-10-25 04:30:00,44.2,36.1,30.25,WNW,283,0.0,0.0,73,0.00,,,0.00,Wunderground v.1.15,2013-10-25 08:30:00,
2013-10-25 04:35:00,44.1,36.0,30.25,WNW,290,0.0,2.0,73,0.00,,,0.00,Wunderground v.1.15,2013-10-25 08:35:00,
2013-10-25 04:40:00,44.1,35.6,30.25,WNW,297,0.0,2.0,72,0.00,,,0.00,Wunderground v.1.15,2013-10-25 08:40:00,
2013-10-25 04:45:00,44.1,35.6,30.25,WNW,297,0.0,2.0,72,0.00,,,0.00,Wunderground v.1.15,2013-10-25 08:45:00,
2013-10-25 04:50:00,44.1,35.6,30.26,WNW,297,0.0,0.0,72,0.00,,,0.00,Wunderground v.1.15,2013-10-25 08:50:00,
2013-10-25 04:55:00,44.1,35.6,30.26,WNW,297,0.0,0.0,72,0.00,,,0.00,Wunderground v.1.15,2013-10-25 08:55:00,
2013-10-25 05:00:00,44.0,35.9,30.26,WNW,297,0.0,0.0,73,0.00,,,0.00,Wunderground v.1.15,2013-10-25 09:00:00,
2013-10-25 05:10:00,44.0,35.9,30.26,WNW,297,0.0,0.0,73,0.00,,,0.00,Wunderground v.1.15,2013-10-25 09:10:00,
2013-10-25 05:15:00,44.0,35.6,30.27,WNW,297,0.0,0.0,72,0.00,,,0.00,Wunderground v.1.15,2013-10-25 09:15:00,
2013-10-25 05:20:00,44.0,35.9,30.27,WNW,297,0.0,0.0,73,0.00,,,0.00,Wunderground v.1.15,2013-10-25 09:20:00,
2013-10-25 05:25:00,43.8,35.7,30.27,WNW,297,0.0,0.0,73,0.00,,,0.00,Wunderground v.1.15,2013-10-25 09:25:00,
2013-10-25 05:30:00,43.8,35.7,30.27,WNW,297,0.0,0.0,73,0.00,,,0.00,Wunderground v.1.15,2013-10-25 09:30:00,
2013-10-25 05:35:00,43.6,35.9,30.27,WNW,297,0.0,0.0,74,0.00,,,0.00,Wunderground v.1.15,2013-10-25 09:35:00,
2013-10-25 05:45:00,43.5,35.8,30.28,WNW,297,0.0,0.0,74,0.00,,,0.00,Wunderground v.1.15,2013-10-25 09:45:00,
2013-10-25 05:50:00,43.4,35.7,30.28,WNW,297,0.0,0.0,74,0.00,,,0.00,Wunderground v.1.15,2013-10-25 09:50:00,
2013-10-25 05:55:00,43.3,35.6,30.28,WNW,297,0.0,0.0,74,0.00,,,0.00,Wunderground v.1.15,2013-10-25 09:55:00,
2013-10-25 06:00:00,43.1,35.4,30.28,WNW,297,0.0,0.0,74,0.00,,,0.00,Wunderground v.1.15,2013-10-25 10:00:00,
2013-10-25 06:10:00,42.8,35.4,30.28,WNW,297,0.0,0.0,75,0.00,,,0.00,Wunderground v.1.15,2013-10-25 10:10:00,
2013-10-25 06:15:00,42.7,35.0,30.28,WNW,297,0.0,0.0,74,0.00,,,0.00,Wunderground v.1.15,2013-10-25 10:15:00,
2013-10-25 06:25:00,42.5,35.1,30.28,WNW,297,0.0,0.0,75,0.00,,,0.00,Wunderground v.1.15,2013-10-25 10:25:00,
2013-10-25 06:30:00,42.3,34.6,30.29,WNW,297,0.0,0.0,74,0.00,,,0.00,Wunderground v.1.15,2013-10-25 10:30:00,
2013-10-25 06:35:00,42.1,34.7,30.29,WNW,297,0.0,0.0,75,0.00,,,0.00,Wunderground v.1.15,2013-10-25 10:35:00,
2013-10-25 06:40:00,42.0,34.6,30.29,WNW,297,0.0,0.0,75,0.00,,,0.00,Wunderground v.1.15,2013-10-25 10:40:00,
2013-10-25 06:45:00,41.8,34.5,30.29,WNW,297,0.0,0.0,75,0.00,,,0.00,Wunderground v.1.15,2013-10-25 10:45:00,
2013-10-25 06:50:00,41.7,34.7,30.29,WNW,297,0.0,0.0,76,0.00,,,0.00,Wunderground v.1.15,2013-10-25 10:50:00,
2013-10-25 06:55:00,41.6,34.9,30.29,WNW,297,0.0,0.0,77,0.00,,,0.00,Wunderground v.1.15,2013-10-25 10:55:00,
2013-10-25 07:05:00,41.4,34.7,30.29,WNW,297,0.0,0.0,77,0.00,,,0.00,Wunderground v.1.15,2013-10-25 11:05:00,
2013-10-25 07:10:00,41.4,35.1,30.30,WNW,297,0.0,0.0,78,0.00,,,0.00,Wunderground v.1.15,2013-10-25 11:10:00,
2013-10-25 07:15:00,41.2,34.5,30.30,WNW,297,0.0,0.0,77,0.00,,,0.00,Wunderground v.1.15,2013-10-25 11:15:00,
2013-10-25 07:20:00,41.1,34.4,30.30,WNW,297,0.0,0.0,77,0.00,,,0.00,Wunderground v.1.15,2013-10-25 11:20:00,
2013-10-25 07:25:00,40.9,34.6,30.30,WNW,297,0.0,0.0,78,0.00,,,0.00,Wunderground v.1.15,2013-10-25 11:25:00,
2013-10-25 07:30:00,40.7,34.4,30.30,WNW,297,0.0,0.0,78,0.00,,,0.00,Wunderground v.1.15,2013-10-25 11:30:00,
2013-10-25 07:40:00,40.4,34.4,30.30,WNW,297,0.0,0.0,79,0.00,,,0.00,Wunderground v.1.15,2013-10-25 11:40:00,
2013-10-25 07:45:00,40.1,34.4,30.31,WNW,297,0.0,0.0,80,0.00,,,0.00,Wunderground v.1.15,2013-10-25 11:45:00,
2013-10-25 07:50:00,40.0,34.3,30.31,WNW,297,0.0,0.0,80,0.00,,,0.00,Wunderground v.1.15,2013-10-25 11:50:00,
2013-10-25 07:55:00,39.8,34.4,30.31,WNW,297,0.0,0.0,81,0.00,,,0.00,Wunderground v.1.15,2013-10-25 11:55:00,
2013-10-25 08:00:00,39.6,34.2,30.31,WNW,297,0.0,0.0,81,0.00,,,0.00,Wunderground v.1.15,2013-10-25 12:00:00,
2013-10-25 08:10:00,39.4,34.4,30.32,WNW,296,0.0,0.0,82,0.00,,,0.00,Wunderground v.1.15,2013-10-25 12:10:00,
2013-10-25 08:20:00,39.3,34.3,30.32,WNW,296,0.0,0.0,82,0.00,,,0.00,Wunderground v.1.15,2013-10-25 12:20:00,
2013-10-25 08:25:00,39.5,34.5,30.32,WNW,296,0.0,0.0,82,0.00,,,0.00,Wunderground v.1.15,2013-10-25 12:25:00,
2013-10-25 08:30:00,39.9,34.9,30.32,WNW,296,0.0,0.0,82,0.00,,,0.00,Wunderground v.1.15,2013-10-25 12:30:00,
2013-10-25 08:35:00,40.4,35.0,30.32,WNW,296,0.0,0.0,81,0.00,,,0.00,Wunderground v.1.15,2013-10-25 12:35:00,
2013-10-25 08:40:00,41.0,35.3,30.33,WNW,297,0.0,0.0,80,0.00,,,0.00,Wunderground v.1.15,2013-10-25 12:40:00,
2013-10-25 08:45:00,41.6,35.2,30.33,WNW,297,0.0,0.0,78,0.00,,,0.00,Wunderground v.1.15,2013-10-25 12:45:00,
2013-10-25 08:55:00,43.3,35.6,30.33,NW,307,0.0,0.0,74,0.00,,,0.00,Wunderground v.1.15,2013-10-25 12:55:00,
2013-10-25 09:00:00,43.7,35.3,30.33,NW,304,1.0,1.0,72,0.00,,,0.00,Wunderground v.1.15,2013-10-25 13:00:00,
2013-10-25 09:10:00,44.5,35.3,30.34,NW,306,1.0,1.0,70,0.00,,,0.00,Wunderground v.1.15,2013-10-25 13:10:00,
2013-10-25 09:15:00,44.9,35.3,30.34,NW,304,1.0,1.0,69,0.00,,,0.00,Wunderground v.1.15,2013-10-25 13:15:00,
2013-10-25 09:20:00,45.2,35.3,30.34,NW,306,1.0,2.0,68,0.00,,,0.00,Wunderground v.1.15,2013-10-25 13:20:00,
2013-10-25 09:25:00,45.6,34.9,30.34,NW,305,1.0,2.0,66,0.00,,,0.00,Wunderground v.1.15,2013-10-25 13:25:00,
2013-10-25 09:35:00,46.1,34.6,30.34,NW,305,2.0,2.0,64,0.00,,,0.00,Wunderground v.1.15,2013-10-25 13:35:00,
2013-10-25 09:40:00,46.3,34.4,30.34,WNW,285,3.0,3.0,63,0.00,,,0.00,Wunderground v.1.15,2013-10-25 13:40:00,
2013-10-25 09:45:00,46.4,34.1,30.34,West,263,4.0,4.0,62,0.00,,,0.00,Wunderground v.1.15,2013-10-25 13:45:00,
2013-10-25 09:50:00,46.7,34.0,30.35,NNW,332,3.0,3.0,61,0.00,,,0.00,Wunderground v.1.15,2013-10-25 13:50:00,
2013-10-25 09:55:00,47.1,33.9,30.35,WNW,296,2.0,5.0,60,0.00,,,0.00,Wunderground v.1.15,2013-10-25 13:55:00,
2013-10-25 10:00:00,47.3,33.7,30.35,WNW,296,2.0,5.0,59,0.00,,,0.00,Wunderground v.1.15,2013-10-25 14:00:00,
2013-10-25 10:10:00,48.0,33.9,30.35,NW,308,2.0,2.0,58,0.00,,,0.00,Wunderground v.1.15,2013-10-25 14:10:00,
2013-10-25 10:15:00,48.5,33.5,30.34,NNW,332,2.0,2.0,56,0.00,,,0.00,Wunderground v.1.15,2013-10-25 14:15:00,
2013-10-25 10:20:00,48.7,32.8,30.34,NW,326,2.0,2.0,54,0.00,,,0.00,Wunderground v.1.15,2013-10-25 14:20:00,
2013-10-25 10:25:00,48.8,33.8,30.34,North,355,2.0,2.0,56,0.00,,,0.00,Wunderground v.1.15,2013-10-25 14:25:00,
2013-10-25 10:30:00,48.9,32.5,30.34,WNW,282,2.0,2.0,53,0.00,,,0.00,Wunderground v.1.15,2013-10-25 14:30:00,
2013-10-25 10:35:00,49.4,33.4,30.34,NW,319,2.0,6.0,54,0.00,,,0.00,Wunderground v.1.15,2013-10-25 14:35:00,
2013-10-25 10:45:00,49.4,33.4,30.34,NW,306,3.0,6.0,54,0.00,,,0.00,Wunderground v.1.15,2013-10-25 14:45:00,
2013-10-25 10:50:00,49.4,32.5,30.34,NW,314,3.0,3.0,52,0.00,,,0.00,Wunderground v.1.15,2013-10-25 14:50:00,
2013-10-25 10:55:00,49.5,32.1,30.34,NNW,330,3.0,5.0,51,0.00,,,0.00,Wunderground v.1.15,2013-10-25 14:55:00,
2013-10-25 11:00:00,49.6,32.7,30.34,NNW,337,3.0,5.0,52,0.00,,,0.00,Wunderground v.1.15,2013-10-25 15:00:00,
2013-10-25 11:10:00,49.8,32.4,30.34,WNW,299,3.0,3.0,51,0.00,,,0.00,Wunderground v.1.15,2013-10-25 15:10:00,
2013-10-25 11:20:00,50.8,33.3,30.35,West,269,2.0,5.0,51,0.00,,,0.00,Wunderground v.1.15,2013-10-25 15:20:00,
2013-10-25 11:25:00,50.6,32.1,30.34,WNW,303,3.0,7.0,49,0.00,,,0.00,Wunderground v.1.15,2013-10-25 15:25:00,
2013-10-25 11:30:00,50.7,32.2,30.35,West,262,3.0,3.0,49,0.00,,,0.00,Wunderground v.1.15,2013-10-25 15:30:00,
2013-10-25 11:35:00,50.8,32.3,30.34,WNW,288,3.0,15.0,49,0.00,,,0.00,Wunderground v.1.15,2013-10-25 15:35:00,
2013-10-25 11:40:00,50.7,31.2,30.34,WNW,299,5.0,7.0,47,0.00,,,0.00,Wunderground v.1.15,2013-10-25 15:40:00,
2013-10-25 11:45:00,51.1,31.6,30.34,NNW,329,5.0,7.0,47,0.00,,,0.00,Wunderground v.1.15,2013-10-25 15:45:00,
2013-10-25 11:55:00,52.0,32.4,30.34,NW,309,3.0,4.0,47,0.00,,,0.00,Wunderground v.1.15,2013-10-25 15:55:00,
2013-10-25 12:00:00,51.7,32.1,30.34,NW,323,3.0,3.0,47,0.00,,,0.00,Wunderground v.1.15,2013-10-25 16:00:00,
2013-10-25 12:10:00,51.7,30.5,30.34,WNW,297,4.0,4.0,44,0.00,,,0.00,Wunderground v.1.15,2013-10-25 16:10:00,
2013-10-25 12:15:00,51.9,31.7,30.33,WNW,288,3.0,4.0,46,0.00,,,0.00,Wunderground v.1.15,2013-10-25 16:15:00,
2013-10-25 12:25:00,52.2,31.5,30.34,NW,324,3.0,6.0,45,0.00,,,0.00,Wunderground v.1.15,2013-10-25 16:25:00,
2013-10-25 12:30:00,52.1,31.9,30.33,West,277,5.0,6.0,46,0.00,,,0.00,Wunderground v.1.15,2013-10-25 16:30:00,
2013-10-25 12:35:00,52.0,31.8,30.34,NNW,346,6.0,6.0,46,0.00,,,0.00,Wunderground v.1.15,2013-10-25 16:35:00,
2013-10-25 12:40:00,52.3,32.1,30.33,NE,35,5.0,5.0,46,0.00,,,0.00,Wunderground v.1.15,2013-10-25 16:40:00,
2013-10-25 12:45:00,52.7,31.9,30.34,NW,309,3.0,5.0,45,0.00,,,0.00,Wunderground v.1.15,2013-10-25 16:45:00,
2013-10-25 12:50:00,52.7,30.8,30.34,WNW,297,5.0,5.0,43,0.00,,,0.00,Wunderground v.1.15,2013-10-25 16:50:00,
2013-10-25 12:55:00,53.0,30.5,30.33,WNW,293,5.0,5.0,42,0.00,,,0.00,Wunderground v.1.15,2013-10-25 16:55:00,
2013-10-25 13:00:00,53.0,31.1,30.33,WNW,287,3.0,3.0,43,0.00,,,0.00,Wunderground v.1.15,2013-10-25 17:00:00,
2013-10-25 13:10:00,53.2,30.7,30.33,WNW,288,3.0,8.0,42,0.00,,,0.00,Wunderground v.1.15,2013-10-25 17:10:00,
2013-10-25 13:15:00,53.4,30.9,30.33,NW,304,4.0,8.0,42,0.00,,,0.00,Wunderground v.1.15,2013-10-25 17:15:00,
2013-10-25 13:20:00,54.1,30.3,30.33,NNW,334,3.0,5.0,40,0.00,,,0.00,Wunderground v.1.15,2013-10-25 17:20:00,
2013-10-25 13:25:00,53.5,31.0,30.33,WNW,286,3.0,6.0,42,0.00,,,0.00,Wunderground v.1.15,2013-10-25 17:25:00,
2013-10-25 13:35:00,53.5,29.7,30.32,NW,326,7.0,11.0,40,0.00,,,0.00,Wunderground v.1.15,2013-10-25 17:35:00,
2013-10-25 13:40:00,53.5,29.1,30.32,NW,326,7.0,8.0,39,0.00,,,0.00,Wunderground v.1.15,2013-10-25 17:40:00,
2013-10-25 13:45:00,53.9,30.1,30.32,WNW,288,7.0,8.0,40,0.00,,,0.00,Wunderground v.1.15,2013-10-25 17:45:00,
2013-10-25 13:50:00,54.4,32.3,30.32,West,277,5.0,11.0,43,0.00,,,0.00,Wunderground v.1.15,2013-10-25 17:50:00,
2013-10-25 13:55:00,54.3,31.1,30.32,WNW,288,5.0,11.0,41,0.00,,,0.00,Wunderground v.1.15,2013-10-25 17:55:00,
2013-10-25 14:00:00,53.5,29.1,30.32,NW,317,6.0,8.0,39,0.00,,,0.00,Wunderground v.1.15,2013-10-25 18:00:00,
2013-10-25 14:10:00,53.8,30.0,30.32,WNW,296,6.0,8.0,40,0.00,,,0.00,Wunderground v.1.15,2013-10-25 18:10:00,
2013-10-25 14:15:00,53.5,29.7,30.31,NW,313,7.0,8.0,40,0.00,,,0.00,Wunderground v.1.15,2013-10-25 18:15:00,
2013-10-25 14:20:00,54.2,29.8,30.32,WNW,290,7.0,8.0,39,0.00,,,0.00,Wunderground v.1.15,2013-10-25 18:20:00,
2013-10-25 14:25:00,54.2,29.8,30.32,WNW,293,8.0,8.0,39,0.00,,,0.00,Wunderground v.1.15,2013-10-25 18:25:00,
2013-10-25 14:30:00,54.6,30.7,30.31,NNW,338,5.0,8.0,40,0.00,,,0.00,Wunderground v.1.15,2013-10-25 18:30:00,
2013-10-25 14:35:00,54.3,29.2,30.31,NW,308,5.0,8.0,38,0.00,,,0.00,Wunderground v.1.15,2013-10-25 18:35:00,
2013-10-25 14:45:00,54.6,30.7,30.31,SW,236,7.0,11.0,40,0.00,,,0.00,Wunderground v.1.15,2013-10-25 18:45:00,
2013-10-25 14:50:00,54.4,29.9,30.31,WSW,253,6.0,6.0,39,0.00,,,0.00,Wunderground v.1.15,2013-10-25 18:50:00,
2013-10-25 14:55:00,54.9,29.7,30.31,WNW,303,3.0,6.0,38,0.00,,,0.00,Wunderground v.1.15,2013-10-25 18:55:00,
2013-10-25 15:00:00,54.7,30.8,30.31,WNW,303,3.0,5.0,40,0.00,,,0.00,Wunderground v.1.15,2013-10-25 19:00:00,
2013-10-25 15:10:00,55.5,31.5,30.31,NNW,334,3.0,4.0,40,0.00,,,0.00,Wunderground v.1.15,2013-10-25 19:10:00,
2013-10-25 15:20:00,55.1,30.6,30.31,North,11,3.0,3.0,39,0.00,,,0.00,Wunderground v.1.15,2013-10-25 19:20:00,
2013-10-25 15:25:00,55.1,30.6,30.31,NW,325,4.0,7.0,39,0.00,,,0.00,Wunderground v.1.15,2013-10-25 19:25:00,
2013-10-25 15:30:00,54.9,30.4,30.31,NW,304,5.0,5.0,39,0.00,,,0.00,Wunderground v.1.15,2013-10-25 19:30:00,
2013-10-25 15:35:00,54.4,30.6,30.31,WNW,300,5.0,6.0,40,0.00,,,0.00,Wunderground v.1.15,2013-10-25 19:35:00,
2013-10-25 15:40:00,54.4,31.2,30.31,NNW,348,3.0,5.0,41,0.00,,,0.00,Wunderground v.1.15,2013-10-25 19:40:00,
2013-10-25 15:45:00,54.7,30.8,30.31,WSW,240,2.0,6.0,40,0.00,,,0.00,Wunderground v.1.15,2013-10-25 19:45:00,
2013-10-25 15:55:00,56.0,32.6,30.31,NW,316,2.0,5.0,41,0.00,,,0.00,Wunderground v.1.15,2013-10-25 19:55:00,
2013-10-25 16:00:00,55.1,30.6,30.30,North,355,2.0,2.0,39,0.00,,,0.00,Wunderground v.1.15,2013-10-25 20:00:00,
2013-10-25 16:10:00,54.7,30.2,30.31,NW,308,1.0,1.0,39,0.00,,,0.00,Wunderground v.1.15,2013-10-25 20:10:00,
2013-10-25 16:15:00,54.5,30.0,30.31,WNW,282,3.0,3.0,39,0.00,,,0.00,Wunderground v.1.15,2013-10-25 20:15:00,
2013-10-25 16:20:00,54.6,31.3,30.31,WNW,299,3.0,9.0,41,0.00,,,0.00,Wunderground v.1.15,2013-10-25 20:20:00,
2013-10-25 16:30:00,55.3,33.2,30.31,NNW,346,1.0,1.0,43,0.00,,,0.00,Wunderground v.1.15,2013-10-25 20:30:00,
2013-10-25 16:35:00,55.2,31.3,30.31,WNW,284,1.0,6.0,40,0.00,,,0.00,Wunderground v.1.15,2013-10-25 20:35:00,
2013-10-25 16:40:00,54.7,30.8,30.32,NW,307,2.0,2.0,40,0.00,,,0.00,Wunderground v.1.15,2013-10-25 20:40:00,
2013-10-25 16:45:00,54.6,31.3,30.32,NW,307,1.0,2.0,41,0.00,,,0.00,Wunderground v.1.15,2013-10-25 20:45:00,
2013-10-25 18:10:00,51.8,34.2,30.33,WNW,302,0.0,9.0,51,0.00,,,0.00,Wunderground v.1.15,2013-10-25 22:10:00,
2013-10-25 18:20:00,50.4,34.4,30.33,WNW,302,0.0,0.0,54,0.00,,,0.00,Wunderground v.1.15,2013-10-25 22:20:00,
2013-10-25 18:25:00,49.6,34.1,30.33,WNW,302,0.0,0.0,55,0.00,,,0.00,Wunderground v.1.15,2013-10-25 22:25:00,
2013-10-25 18:30:00,48.8,34.2,30.33,WNW,302,0.0,0.0,57,0.00,,,0.00,Wunderground v.1.15,2013-10-25 22:30:00,
2013-10-25 18:35:00,48.3,33.8,30.34,WNW,302,0.0,0.0,57,0.00,,,0.00,Wunderground v.1.15,2013-10-25 22:35:00,
2013-10-25 18:40:00,47.8,34.2,30.34,WNW,302,0.0,0.0,59,0.00,,,0.00,Wunderground v.1.15,2013-10-25 22:40:00,
2013-10-25 18:50:00,46.8,34.5,30.34,WNW,302,0.0,0.0,62,0.00,,,0.00,Wunderground v.1.15,2013-10-25 22:50:00,
2013-10-25 18:55:00,46.3,34.8,30.34,WNW,302,0.0,0.0,64,0.00,,,0.00,Wunderground v.1.15,2013-10-25 22:55:00,
2013-10-25 19:00:00,45.9,34.8,30.34,WNW,302,0.0,0.0,65,0.00,,,0.00,Wunderground v.1.15,2013-10-25 23:00:00,
2013-10-25 19:10:00,45.2,35.3,30.34,WNW,302,0.0,0.0,68,0.00,,,0.00,Wunderground v.1.15,2013-10-25 23:10:00,
2013-10-25 19:15:00,45.0,35.1,30.34,WNW,302,0.0,0.0,68,0.00,,,0.00,Wunderground v.1.15,2013-10-25 23:15:00,
2013-10-25 19:25:00,44.4,35.2,30.34,WNW,302,0.0,0.0,70,0.00,,,0.00,Wunderground v.1.15,2013-10-25 23:25:00,
2013-10-25 19:30:00,44.1,36.0,30.35,WNW,302,0.0,0.0,73,0.00,,,0.00,Wunderground v.1.15,2013-10-25 23:30:00,
2013-10-25 19:35:00,43.8,35.7,30.35,WNW,302,0.0,0.0,73,0.00,,,0.00,Wunderground v.1.15,2013-10-25 23:35:00,
2013-10-25 19:40:00,43.4,35.3,30.35,WNW,302,0.0,0.0,73,0.00,,,0.00,Wunderground v.1.15,2013-10-25 23:40:00,
2013-10-25 19:45:00,43.2,35.5,30.35,WNW,302,0.0,0.0,74,0.00,,,0.00,Wunderground v.1.15,2013-10-25 23:45:00,
2013-10-25 19:55:00,42.7,35.3,30.35,WNW,302,0.0,0.0,75,0.00,,,0.00,Wunderground v.1.15,2013-10-25 23:55:00,
2013-10-25 20:00:00,42.5,36.1,30.35,WNW,302,0.0,0.0,78,0.00,,,0.00,Wunderground v.1.15,2013-10-26 00:00:00,
2013-10-25 20:10:00,42.3,36.6,30.35,WNW,302,0.0,0.0,80,0.00,,,0.00,Wunderground v.1.15,2013-10-26 00:10:00,
2013-10-25 20:15:00,42.2,36.5,30.35,WNW,302,0.0,0.0,80,0.00,,,0.00,Wunderground v.1.15,2013-10-26 00:15:00,
2013-10-25 20:20:00,41.9,36.5,30.35,WNW,302,0.0,0.0,81,0.00,,,0.00,Wunderground v.1.15,2013-10-26 00:20:00,
2013-10-25 20:25:00,41.6,36.5,30.36,WNW,302,0.0,0.0,82,0.00,,,0.00,Wunderground v.1.15,2013-10-26 00:25:00,
2013-10-25 20:30:00,41.4,36.3,30.36,WNW,302,0.0,0.0,82,0.00,,,0.00,Wunderground v.1.15,2013-10-26 00:30:00,
2013-10-25 20:40:00,40.5,35.4,30.36,WNW,302,0.0,0.0,82,0.00,,,0.00,Wunderground v.1.15,2013-10-26 00:40:00,
2013-10-25 20:45:00,40.2,35.4,30.35,WNW,302,0.0,0.0,83,0.00,,,0.00,Wunderground v.1.15,2013-10-26 00:45:00,
2013-10-25 20:50:00,40.0,35.6,30.35,WNW,302,0.0,0.0,84,0.00,,,0.00,Wunderground v.1.15,2013-10-26 00:50:00,
2013-10-25 20:55:00,39.8,35.4,30.36,WNW,302,0.0,0.0,84,0.00,,,0.00,Wunderground v.1.15,2013-10-26 00:55:00,
2013-10-25 21:00:00,39.9,36.1,30.36,WNW,302,0.0,0.0,86,0.00,,,0.00,Wunderground v.1.15,2013-10-26 01:00:00,
2013-10-25 21:10:00,40.1,36.5,30.36,WNW,302,0.0,0.0,87,0.00,,,0.00,Wunderground v.1.15,2013-10-26 01:10:00,
2013-10-25 21:15:00,39.9,36.3,30.36,WNW,302,0.0,0.0,87,0.00,,,0.00,Wunderground v.1.15,2013-10-26 01:15:00,
2013-10-25 21:20:00,39.6,36.0,30.36,WNW,302,0.0,0.0,87,0.00,,,0.00,Wunderground v.1.15,2013-10-26 01:20:00,
2013-10-25 21:25:00,39.5,36.2,30.36,WNW,302,0.0,0.0,88,0.00,,,0.00,Wunderground v.1.15,2013-10-26 01:25:00,
2013-10-25 21:30:00,39.5,36.2,30.37,WNW,302,0.0,0.0,88,0.00,,,0.00,Wunderground v.1.15,2013-10-26 01:30:00,
2013-10-25 21:35:00,39.4,35.6,30.36,WNW,302,0.0,0.0,86,0.00,,,0.00,Wunderground v.1.15,2013-10-26 01:35:00,
2013-10-25 21:45:00,39.5,36.0,30.37,WNW,302,0.0,0.0,87,0.00,,,0.00,Wunderground v.1.15,2013-10-26 01:45:00,
2013-10-25 21:55:00,39.3,35.5,30.37,WNW,302,0.0,0.0,86,0.00,,,0.00,Wunderground v.1.15,2013-10-26 01:55:00,
2013-10-25 22:00:00,39.2,35.4,30.37,WNW,302,0.0,0.0,86,0.00,,,0.00,Wunderground v.1.15,2013-10-26 02:00:00,
2013-10-25 22:10:00,38.8,35.0,30.38,WNW,302,0.0,4.0,86,0.00,,,0.00,Wunderground v.1.15,2013-10-26 02:10:00,
2013-10-25 22:15:00,39.0,35.5,30.38,WNW,302,1.0,4.0,87,0.00,,,0.00,Wunderground v.1.15,2013-10-26 02:15:00,
2013-10-25 22:20:00,38.9,35.4,30.38,WNW,302,1.0,1.0,87,0.00,,,0.00,Wunderground v.1.15,2013-10-26 02:20:00,
2013-10-25 22:30:00,38.9,35.4,30.39,WNW,302,0.0,0.0,87,0.00,,,0.00,Wunderground v.1.15,2013-10-26 02:30:00,
2013-10-25 22:35:00,39.0,35.2,30.39,WNW,302,0.0,0.0,86,0.00,,,0.00,Wunderground v.1.15,2013-10-26 02:35:00,
2013-10-25 22:40:00,39.1,35.3,30.39,WNW,302,0.0,0.0,86,0.00,,,0.00,Wunderground v.1.15,2013-10-26 02:40:00,
2013-10-25 22:45:00,39.2,35.1,30.39,WNW,302,0.0,0.0,85,0.00,,,0.00,Wunderground v.1.15,2013-10-26 02:45:00,
2013-10-25 22:55:00,39.2,35.1,30.39,WNW,302,0.0,0.0,85,0.00,,,0.00,Wunderground v.1.15,2013-10-26 02:55:00,
2013-10-25 23:00:00,39.2,35.1,30.39,WNW,302,0.0,0.0,85,0.00,,,0.00,Wunderground v.1.15,2013-10-26 03:00:00,
2013-10-25 23:10:00,39.0,34.9,30.39,WNW,302,0.0,0.0,85,0.00,,,0.00,Wunderground v.1.15,2013-10-26 03:10:00,
2013-10-25 23:20:00,38.9,34.5,30.39,WNW,302,0.0,0.0,84,0.00,,,0.00,Wunderground v.1.15,2013-10-26 03:20:00,
2013-10-25 23:25:00,38.9,34.2,30.39,WNW,302,0.0,0.0,83,0.00,,,0.00,Wunderground v.1.15,2013-10-26 03:25:00,
2013-10-25 23:30:00,38.8,34.7,30.39,WNW,302,0.0,0.0,85,0.00,,,0.00,Wunderground v.1.15,2013-10-26 03:30:00,
2013-10-25 23:40:00,38.6,34.5,30.39,WNW,302,0.0,0.0,85,0.00,,,0.00,Wunderground v.1.15,2013-10-26 03:40:00,
2013-10-25 23:45:00,38.5,34.1,30.39,WNW,302,0.0,0.0,84,0.00,,,0.00,Wunderground v.1.15,2013-10-26 03:45:00,
2013-10-25 23:50:00,38.5,34.1,30.39,WNW,302,0.0,0.0,84,0.00,,,0.00,Wunderground v.1.15,2013-10-26 03:50:00,
2013-10-25 23:55:00,38.5,34.4,30.39,WNW,302,0.0,0.0,85,0.00,,,0.00,Wunderground v.1.15,2013-10-26 03:55:00,